Time,TemperatureF,DewpointF,PressureIn,WindDirection,WindDirectionDegrees,WindSpeedMPH,WindSpeedGustMPH,Humidity,HourlyPrecipIn,Conditions,Clouds,dailyrainin,SoftwareType,DateUTC
2013-06-16 00:01:00,64.0,49.0,29.86,WSW,249,1.0,2.0,59,0.00,,,0.00,,2013-06-16 05:01:00,
2013-06-16 00:11:00,64.0,49.0,29.86,WSW,244,0.0,2.0,58,0.00,,,0.00,,2013-06-16 05:11:00,
2013-06-16 00:22:00,64.0,49.0,29.86,WSW,244,0.0,2.0,58,0.00,,,0.00,,2013-06-16 05:22:00,
2013-06-16 00:34:00,64.0,49.0,29.87,WSW,244,0.0,2.0,58,0.00,,,0.00,,2013-06-16 05:34:00,
2013-06-16 00:43:00,63.0,48.0,29.87,WSW,244,0.0,2.0,59,0.00,,,0.00,,2013-06-16 05:43:00,
2013-06-16 00:52:00,63.0,48.0,29.87,WSW,244,0.0,2.0,59,0.00,,,0.00,,2013-06-16 05:52:00,
2013-06-16 01:01:00,63.0,46.0,29.87,WSW,244,0.0,2.0,54,0.00,,,0.00,,2013-06-16 06:01:00,
2013-06-16 01:11:00,62.0,46.0,29.86,WSW,244,0.0,2.0,55,0.00,,,0.00,,2013-06-16 06:11:00,
2013-06-16 01:22:00,62.0,46.0,29.86,WSW,244,0.0,2.0,55,0.00,,,0.00,,2013-06-16 06:22:00,
2013-06-16 01:33:00,62.0,46.0,29.86,WSW,242,0.0,2.0,56,0.00,,,0.00,,2013-06-16 06:33:00,
2013-06-16 01:43:00,62.0,44.0,29.87,WSW,242,0.0,2.0,52,0.00,,,0.00,,2013-06-16 06:43:00,
2013-06-16 01:52:00,62.0,44.0,29.87,WSW,242,0.0,2.0,52,0.00,,,0.00,,2013-06-16 06:52:00,
2013-06-16 02:01:00,62.0,44.0,29.87,SW,234,0.0,2.0,52,0.00,,,0.00,,2013-06-16 07:01:00,
2013-06-16 02:11:00,62.0,45.0,29.86,SW,236,0.0,2.0,53,0.00,,,0.00,,2013-06-16 07:11:00,
2013-06-16 02:22:00,62.0,45.0,29.86,SW,236,0.0,2.0,53,0.00,,,0.00,,2013-06-16 07:22:00,
2013-06-16 02:32:00,62.0,45.0,29.87,WSW,241,0.0,4.0,53,0.00,,,0.00,,2013-06-16 07:32:00,
2013-06-16 02:43:00,61.0,43.0,29.86,West,260,0.0,3.0,51,0.00,,,0.00,,2013-06-16 07:43:00,
2013-06-16 02:53:00,61.0,43.0,29.86,West,260,0.0,3.0,51,0.00,,,0.00,,2013-06-16 07:53:00,
2013-06-16 03:11:00,60.0,42.0,29.86,WSW,241,0.0,3.0,51,0.00,,,0.00,,2013-06-16 08:11:00,
2013-06-16 03:33:00,60.0,42.0,29.86,WSW,250,0.0,3.0,51,0.00,,,0.00,,2013-06-16 08:33:00,
2013-06-16 04:11:00,59.0,41.0,29.87,WSW,249,0.0,2.0,52,0.00,,,0.00,,2013-06-16 09:11:00,
2013-06-16 04:33:00,60.0,42.0,29.87,WSW,252,1.0,3.0,51,0.00,,,0.00,,2013-06-16 09:33:00,
2013-06-16 04:42:00,61.0,44.0,29.87,WSW,240,1.0,5.0,54,0.00,,,0.00,,2013-06-16 09:42:00,
2013-06-16 04:52:00,61.0,44.0,29.87,WSW,240,1.0,5.0,54,0.00,,,0.00,,2013-06-16 09:52:00,
2013-06-16 05:01:00,60.0,43.0,29.87,WSW,240,1.0,5.0,54,0.00,,,0.00,,2013-06-16 10:01:00,
2013-06-16 05:12:00,61.0,46.0,29.87,SW,232,1.0,5.0,57,0.00,,,0.00,,2013-06-16 10:12:00,
2013-06-16 05:22:00,61.0,46.0,29.87,SW,232,1.0,5.0,57,0.00,,,0.00,,2013-06-16 10:22:00,
2013-06-16 05:33:00,60.0,44.0,29.88,WSW,248,1.0,4.0,55,0.00,,,0.00,,2013-06-16 10:33:00,
2013-06-16 06:02:00,59.0,44.0,29.88,West,264,1.0,3.0,57,0.00,,,0.00,,2013-06-16 11:02:00,
2013-06-16 06:11:00,60.0,44.0,29.88,WSW,242,2.0,8.0,55,0.00,,,0.00,,2013-06-16 11:11:00,
2013-06-16 06:22:00,60.0,44.0,29.88,WSW,242,2.0,8.0,55,0.00,,,0.00,,2013-06-16 11:22:00,
2013-06-16 06:33:00,61.0,44.0,29.89,SW,225,2.0,7.0,54,0.00,,,0.00,,2013-06-16 11:33:00,
2013-06-16 06:43:00,61.0,44.0,29.89,WSW,238,3.0,6.0,53,0.00,,,0.00,,2013-06-16 11:43:00,
2013-06-16 06:52:00,61.0,44.0,29.89,WSW,238,3.0,6.0,53,0.00,,,0.00,,2013-06-16 11:52:00,
2013-06-16 07:02:00,62.0,42.0,29.89,WSW,246,4.0,8.0,48,0.00,,,0.00,,2013-06-16 12:02:00,
2013-06-16 07:32:00,65.0,44.0,29.90,SW,234,4.0,9.0,47,0.00,,,0.00,,2013-06-16 12:32:00,
2013-06-16 07:42:00,66.0,46.0,29.89,WSW,243,3.0,11.0,48,0.00,,,0.00,,2013-06-16 12:42:00,
2013-06-16 07:53:00,66.0,46.0,29.89,WSW,243,3.0,11.0,48,0.00,,,0.00,,2013-06-16 12:53:00,
2013-06-16 08:01:00,66.0,46.0,29.89,WSW,252,4.0,7.0,49,0.00,,,0.00,,2013-06-16 13:01:00,
2013-06-16 08:11:00,67.0,48.0,29.89,West,265,3.0,8.0,51,0.00,,,0.00,,2013-06-16 13:11:00,
2013-06-16 08:22:00,67.0,48.0,29.89,West,265,3.0,8.0,51,0.00,,,0.00,,2013-06-16 13:22:00,
2013-06-16 08:34:00,69.0,50.0,29.88,WSW,247,3.0,6.0,51,0.00,,,0.00,,2013-06-16 13:34:00,
2013-06-16 08:42:00,70.0,51.0,29.88,WSW,247,4.0,8.0,51,0.00,,,0.00,,2013-06-16 13:42:00,
2013-06-16 08:53:00,70.0,51.0,29.88,WSW,247,4.0,8.0,51,0.00,,,0.00,,2013-06-16 13:53:00,
2013-06-16 09:02:00,72.0,52.0,29.88,WSW,242,4.0,8.0,49,0.00,,,0.00,,2013-06-16 14:02:00,
2013-06-16 09:12:00,73.0,52.0,29.88,WSW,245,4.0,9.0,48,0.00,,,0.00,,2013-06-16 14:12:00,
2013-06-16 09:22:00,73.0,52.0,29.88,WSW,245,4.0,9.0,48,0.00,,,0.00,,2013-06-16 14:22:00,
2013-06-16 09:34:00,74.0,52.0,29.88,West,261,6.0,10.0,46,0.00,,,0.00,,2013-06-16 14:34:00,
2013-06-16 09:43:00,74.0,52.0,29.88,West,261,6.0,11.0,46,0.00,,,0.00,,2013-06-16 14:43:00,
2013-06-16 09:52:00,74.0,52.0,29.88,West,261,6.0,11.0,46,0.00,,,0.00,,2013-06-16 14:52:00,
2013-06-16 10:02:00,75.0,53.0,29.88,SW,225,7.0,13.0,46,0.00,,,0.00,,2013-06-16 15:02:00,
2013-06-16 10:12:00,76.0,52.0,29.88,West,271,7.0,12.0,43,0.00,,,0.00,,2013-06-16 15:12:00,
2013-06-16 10:23:00,76.0,52.0,29.88,West,271,7.0,12.0,43,0.00,,,0.00,,2013-06-16 15:23:00,
2013-06-16 10:33:00,77.0,53.0,29.88,WSW,238,5.0,14.0,44,0.00,,,0.00,,2013-06-16 15:33:00,
2013-06-16 10:43:00,77.0,49.0,29.87,SW,227,6.0,15.0,38,0.00,,,0.00,,2013-06-16 15:43:00,
2013-06-16 10:52:00,77.0,49.0,29.87,SW,227,6.0,15.0,38,0.00,,,0.00,,2013-06-16 15:52:00,
2013-06-16 11:02:00,78.0,49.0,29.86,West,280,5.0,13.0,36,0.00,,,0.00,,2013-06-16 16:02:00,
2013-06-16 11:12:00,78.0,50.0,29.86,West,271,7.0,14.0,38,0.00,,,0.00,,2013-06-16 16:12:00,
2013-06-16 11:22:00,78.0,50.0,29.86,West,271,7.0,14.0,38,0.00,,,0.00,,2013-06-16 16:22:00,
2013-06-16 11:33:00,78.0,51.0,29.86,WSW,250,6.0,13.0,39,0.00,,,0.00,,2013-06-16 16:33:00,
2013-06-16 11:43:00,79.0,53.0,29.85,SW,230,5.0,14.0,40,0.00,,,0.00,,2013-06-16 16:43:00,
2013-06-16 11:53:00,79.0,53.0,29.85,SW,230,5.0,14.0,40,0.00,,,0.00,,2013-06-16 16:53:00,
2013-06-16 12:02:00,79.0,53.0,29.85,WSW,256,7.0,12.0,40,0.00,,,0.00,,2013-06-16 17:02:00,
2013-06-16 12:11:00,80.0,55.0,29.84,WSW,246,7.0,14.0,42,0.00,,,0.00,,2013-06-16 17:11:00,
2013-06-16 12:22:00,80.0,55.0,29.84,WSW,246,7.0,14.0,42,0.00,,,0.00,,2013-06-16 17:22:00,
2013-06-16 12:34:00,80.0,53.0,29.85,West,261,11.0,16.0,39,0.00,,,0.00,,2013-06-16 17:34:00,
2013-06-16 12:43:00,81.0,54.0,29.85,WSW,254,12.0,19.0,39,0.00,,,0.00,,2013-06-16 17:43:00,
2013-06-16 12:53:00,81.0,54.0,29.85,WSW,254,12.0,19.0,39,0.00,,,0.00,,2013-06-16 17:53:00,
2013-06-16 13:02:00,81.0,55.0,29.85,WSW,247,8.0,19.0,41,0.00,,,0.00,,2013-06-16 18:02:00,
2013-06-16 13:12:00,82.0,55.0,29.85,WNW,288,10.0,18.0,39,0.00,,,0.00,,2013-06-16 18:12:00,
2013-06-16 13:22:00,82.0,55.0,29.85,WNW,288,10.0,18.0,39,0.00,,,0.00,,2013-06-16 18:22:00,
2013-06-16 13:33:00,81.0,54.0,29.85,WSW,246,7.0,19.0,39,0.00,,,0.00,,2013-06-16 18:33:00,
2013-06-16 13:43:00,82.0,56.0,29.85,WSW,248,4.0,17.0,41,0.00,,,0.00,,2013-06-16 18:43:00,
2013-06-16 13:52:00,82.0,56.0,29.85,WSW,248,4.0,17.0,41,0.00,,,0.00,,2013-06-16 18:52:00,
2013-06-16 14:01:00,82.0,55.0,29.85,WSW,246,6.0,13.0,39,0.00,,,0.00,,2013-06-16 19:01:00,
2013-06-16 14:11:00,82.0,56.0,29.84,WSW,254,10.0,17.0,41,0.00,,,0.00,,2013-06-16 19:11:00,
2013-06-16 14:22:00,82.0,56.0,29.84,WSW,254,10.0,17.0,41,0.00,,,0.00,,2013-06-16 19:22:00,
2013-06-16 14:34:00,81.0,56.0,29.84,SSW,213,7.0,17.0,43,0.00,,,0.00,,2013-06-16 19:34:00,
2013-06-16 14:43:00,81.0,58.0,29.83,WSW,251,8.0,14.0,45,0.00,,,0.00,,2013-06-16 19:43:00,
2013-06-16 14:53:00,81.0,58.0,29.83,WSW,251,8.0,14.0,45,0.00,,,0.00,,2013-06-16 19:53:00,
2013-06-16 15:02:00,80.0,56.0,29.83,WSW,250,7.0,13.0,44,0.00,,,0.00,,2013-06-16 20:02:00,
2013-06-16 15:11:00,80.0,56.0,29.83,WSW,257,8.0,15.0,44,0.00,,,0.00,,2013-06-16 20:11:00,
2013-06-16 15:22:00,80.0,56.0,29.83,WSW,257,8.0,15.0,44,0.00,,,0.00,,2013-06-16 20:22:00,
2013-06-16 16:32:00,73.0,54.0,29.83,SW,227,5.0,13.0,52,0.01,,,0.01,,2013-06-16 21:32:00,
2013-06-16 16:42:00,72.0,53.0,29.84,West,274,5.0,12.0,52,0.00,,,0.01,,2013-06-16 21:42:00,
2013-06-16 16:53:00,72.0,53.0,29.84,West,274,5.0,12.0,52,0.00,,,0.01,,2013-06-16 21:53:00,
2013-06-16 17:01:00,72.0,54.0,29.83,WSW,248,5.0,11.0,53,0.00,,,0.01,,2013-06-16 22:01:00,
2013-06-16 17:12:00,73.0,55.0,29.84,WSW,241,4.0,9.0,54,0.00,,,0.01,,2013-06-16 22:12:00,
2013-06-16 17:22:00,73.0,55.0,29.84,WSW,241,4.0,9.0,54,0.00,,,0.01,,2013-06-16 22:22:00,
2013-06-16 17:32:00,72.0,54.0,29.83,SW,225,3.0,9.0,54,0.01,,,0.02,,2013-06-16 22:32:00,
2013-06-16 17:42:00,73.0,55.0,29.83,SW,217,3.0,9.0,54,0.01,,,0.02,,2013-06-16 22:42:00,
2013-06-16 17:52:00,73.0,55.0,29.83,SW,217,3.0,9.0,54,0.01,,,0.02,,2013-06-16 22:52:00,
2013-06-16 18:01:00,76.0,58.0,29.82,SW,236,6.0,13.0,54,0.01,,,0.02,,2013-06-16 23:01:00,
2013-06-16 18:11:00,78.0,59.0,29.82,West,275,4.0,9.0,53,0.01,,,0.02,,2013-06-16 23:11:00,
2013-06-16 18:22:00,78.0,59.0,29.82,West,275,4.0,9.0,53,0.01,,,0.02,,2013-06-16 23:22:00,
2013-06-16 18:32:00,79.0,60.0,29.81,WSW,241,3.0,7.0,52,0.00,,,0.02,,2013-06-16 23:32:00,
2013-06-16 18:42:00,79.0,60.0,29.81,WSW,248,3.0,8.0,52,0.00,,,0.02,,2013-06-16 23:42:00,
2013-06-16 18:51:00,79.0,60.0,29.81,WSW,248,3.0,8.0,52,0.00,,,0.02,,2013-06-16 23:51:00,
2013-06-16 19:02:00,79.0,59.0,29.80,SSW,212,4.0,10.0,51,0.00,,,0.02,,2013-06-17 00:02:00,
2013-06-16 19:11:00,79.0,60.0,29.80,WSW,242,5.0,10.0,52,0.00,,,0.02,,2013-06-17 00:11:00,
2013-06-16 19:22:00,79.0,60.0,29.80,WSW,242,5.0,10.0,52,0.00,,,0.02,,2013-06-17 00:22:00,
2013-06-16 19:32:00,78.0,57.0,29.81,WSW,240,7.0,14.0,49,0.00,,,0.02,,2013-06-17 00:32:00,
2013-06-16 19:42:00,78.0,57.0,29.80,SW,228,5.0,10.0,49,0.00,,,0.02,,2013-06-17 00:42:00,
2013-06-16 19:52:00,78.0,57.0,29.80,SW,228,5.0,10.0,49,0.00,,,0.02,,2013-06-17 00:52:00,
2013-06-16 20:02:00,77.0,58.0,29.80,SW,231,4.0,10.0,52,0.00,,,0.02,,2013-06-17 01:02:00,
2013-06-16 20:11:00,76.0,57.0,29.80,West,277,5.0,10.0,52,0.00,,,0.02,,2013-06-17 01:11:00,
2013-06-16 20:22:00,76.0,57.0,29.80,West,277,5.0,10.0,52,0.00,,,0.02,,2013-06-17 01:22:00,
2013-06-16 20:32:00,76.0,58.0,29.80,WSW,257,2.0,10.0,53,0.00,,,0.02,,2013-06-17 01:32:00,
2013-06-16 20:43:00,75.0,57.0,29.81,WSW,248,2.0,8.0,54,0.00,,,0.02,,2013-06-17 01:43:00,
2013-06-16 20:53:00,75.0,57.0,29.81,WSW,248,2.0,8.0,54,0.00,,,0.02,,2013-06-17 01:53:00,
2013-06-16 21:02:00,73.0,56.0,29.81,NW,313,2.0,6.0,55,0.00,,,0.02,,2013-06-17 02:02:00,
2013-06-16 21:12:00,72.0,55.0,29.81,West,278,0.0,5.0,55,0.00,,,0.02,,2013-06-17 02:12:00,
2013-06-16 21:22:00,72.0,55.0,29.81,West,278,0.0,5.0,55,0.00,,,0.02,,2013-06-17 02:22:00,
2013-06-16 21:34:00,71.0,54.0,29.82,WSW,251,0.0,3.0,54,0.00,,,0.02,,2013-06-17 02:34:00,
2013-06-16 21:43:00,70.0,52.0,29.83,WSW,251,0.0,1.0,53,0.00,,,0.02,,2013-06-17 02:43:00,
2013-06-16 21:53:00,70.0,52.0,29.83,WSW,251,0.0,1.0,53,0.00,,,0.02,,2013-06-17 02:53:00,
2013-06-16 22:02:00,69.0,51.0,29.83,WNW,292,2.0,5.0,53,0.00,,,0.02,,2013-06-17 03:02:00,
2013-06-16 22:12:00,69.0,52.0,29.84,West,279,1.0,4.0,54,0.00,,,0.02,,2013-06-17 03:12:00,
2013-06-16 22:22:00,69.0,52.0,29.84,West,279,1.0,4.0,54,0.00,,,0.02,,2013-06-17 03:22:00,
2013-06-16 22:33:00,68.0,51.0,29.85,West,267,2.0,5.0,54,0.00,,,0.02,,2013-06-17 03:33:00,
2013-06-16 22:44:00,68.0,51.0,29.86,WNW,284,3.0,6.0,55,0.00,,,0.02,,2013-06-17 03:44:00,
2013-06-16 22:53:00,68.0,51.0,29.86,WNW,284,3.0,6.0,55,0.00,,,0.02,,2013-06-17 03:53:00,
2013-06-16 23:02:00,68.0,51.0,29.86,WSW,254,4.0,6.0,54,0.00,,,0.02,,2013-06-17 04:02:00,
2013-06-16 23:12:00,68.0,51.0,29.86,West,265,1.0,7.0,54,0.00,,,0.02,,2013-06-17 04:12:00,
2013-06-16 23:22:00,68.0,51.0,29.86,West,265,1.0,7.0,54,0.00,,,0.02,,2013-06-17 04:22:00,
2013-06-16 23:34:00,66.0,49.0,29.87,WSW,240,1.0,5.0,55,0.00,,,0.02,,2013-06-17 04:34:00,
2013-06-16 23:42:00,66.0,50.0,29.86,WSW,242,1.0,6.0,56,0.00,,,0.02,,2013-06-17 04:42:00,
2013-06-16 23:53:00,66.0,50.0,29.86,WSW,242,1.0,6.0,56,0.00,,,0.02,,2013-06-17 04:53:00,